NV0N-20 Weather Reports


time (UTC)temp
C
wind
direction
speed
KPH
gust
KPH
rain 1hr
cm
rain 24hr
cm
rain mn
cm
humidity
%
barometer
mb
20260505035803 6 243 1.6 6.4 0.05 0.15 0.20 84 365.1
20260505035304 6 249 0.0 6.4 0.05 0.15 0.20 84 365.1
20260505034802 6 253 1.6 9.7 0.05 0.15 0.20 84 365.0
20260505034303 6 229 3.2 14.5 0.08 0.15 0.20 84 365.0
20260505033802 6 276 3.2 14.5 0.08 0.15 0.20 84 365.1
20260505033302 6 254 6.4 11.3 0.08 0.15 0.20 84 365.1
20260505032759 6 252 6.4 11.3 0.08 0.15 0.20 84 365.0
20260505032258 6 260 4.8 16.1 0.05 0.15 0.18 83 364.9
20260505031825 6 228 8.0 14.5 0.03 0.15 0.15 81 364.7
20260505031815 6 250 6.4 16.1 0.05 0.15 0.18 82 364.7
20260505030751 6 252 9.7 16.1 0.03 0.15 0.15 80 364.7
20260505030249 6 250 8.0 16.1 0.03 0.15 0.15 79 364.7
20260505025749 6 239 8.0 14.5 0.03 0.13 0.15 78 364.5
20260505025251 6 256 6.4 14.5 0.03 0.13 0.15 77 364.4
20260505024749 7 240 1.6 8.0 0.00 0.13 0.13 76 364.4
20260505024533 7 277 3.2 8.0 0.00 0.13 0.13 75 364.3
20260505023749 7 247 1.6 4.8 0.00 0.13 0.13 74 364.2
20260505023539 7 243 3.2 4.8 0.00 0.13 0.13 74 364.2
20260505022749 7 284 0.0 3.2 0.00 0.13 0.13 74 364.3
20260505022249 7 267 0.0 3.2 0.00 0.13 0.13 75 364.0
20260505021748 7 291 1.6 3.2 0.00 0.13 0.13 75 364.0
20260505021250 7 3 0.0 3.2 0.00 0.13 0.13 75 363.9
20260505020750 7 3 0.0 4.8 0.00 0.13 0.13 74 363.9
20260505020248 7 6 1.6 6.4 0.00 0.13 0.13 74 364.3
20260505015749 7 346 4.8 11.3 0.00 0.13 0.13 75 364.3
20260505015248 7 4 4.8 16.1 0.00 0.13 0.13 73 364.2
20260505014749 7 0 9.7 16.1 0.00 0.13 0.13 73 364.0
20260505014536 7 28 11.3 17.7 0.00 0.13 0.13 71 363.9
20260505013749 7 9 6.4 17.7 0.03 0.13 0.13 70 363.8
20260505013249 7 349 9.7 19.3 0.03 0.13 0.13 70 363.7
20260505012747 7 39 9.7 19.3 0.03 0.13 0.13 69 363.7
20260505012247 7 356 8.0 20.9 0.03 0.13 0.13 71 363.9
20260505011748 7 356 11.3 22.5 0.03 0.13 0.13 71 363.8
20260505011248 8 0 11.3 24.1 0.03 0.13 0.13 70 363.9
20260505010747 8 350 17.7 24.1 0.03 0.13 0.13 68 364.0
20260505010247 8 350 16.1 22.5 0.03 0.13 0.13 67 363.9
20260505005746 8 339 14.5 29.0 0.03 0.10 0.13 67 363.9
20260505005245 8 6 14.5 29.0 0.03 0.10 0.13 68 363.8
20260505004745 9 21 14.5 27.4 0.03 0.10 0.13 66 363.7
20260505004246 10 343 17.7 25.7 0.03 0.10 0.13 61 363.9
20260505003746 10 350 11.3 17.7 0.00 0.10 0.10 60 363.8
20260505003245 10 10 0.0 8.0 0.00 0.10 0.10 59 363.6
20260505002746 10 18 1.6 8.0 0.00 0.10 0.10 57 363.5
20260505002244 11 34 1.6 6.4 0.00 0.10 0.10 58 363.5
20260505001745 11 30 0.0 4.8 0.00 0.10 0.10 61 363.5
20260505001246 10 21 1.6 6.4 0.00 0.10 0.10 60 363.4
20260505000745 10 346 3.2 6.4 0.00 0.10 0.10 63 363.4
20260505000535 10 345 3.2 6.4 0.03 0.10 0.10 64 363.4
20260504235744 10 51 0.0 1.6 0.03 0.08 0.10 65 363.4
20260504235530 10 56 0.0 0.0 0.03 0.08 0.10 62 363.4
20260504234745 10 56 0.0 1.6 0.03 0.08 0.10 63 363.1
20260504234245 10 56 0.0 3.2 0.03 0.08 0.10 62 363.0
20260504234033 10 56 0.0 8.0 0.03 0.08 0.10 62 363.0
20260504233529 10 23 0.0 11.3 0.03 0.08 0.10 63 363.1
20260504232744 10 46 4.8 11.3 0.03 0.08 0.10 63 363.1
20260504232244 10 11 3.2 6.4 0.03 0.08 0.10 60 363.4
20260504232032 9 11 0.0 4.8 0.03 0.08 0.10 61 363.5
20260504231243 10 283 0.0 20.9 0.03 0.08 0.10 61 363.5
20260504230745 10 347 9.7 27.4 0.03 0.08 0.10 56 363.4
20260504230244 11 340 19.3 27.4 0.00 0.08 0.08 53 363.2
20260504225746 12 328 16.1 25.7 0.00 0.08 0.08 48 363.1
20260504225535 12 3 9.7 24.1 0.00 0.08 0.08 44 362.9
20260504224739 12 338 4.8 11.3 0.00 0.08 0.08 45 362.8
20260504224234 12 350 1.6 4.8 0.00 0.08 0.08 47 362.7
20260504223734 12 27 0.0 6.4 0.00 0.08 0.08 43 362.5
20260504223233 12 14 0.0 11.3 0.00 0.08 0.08 44 362.2
20260504222733 12 26 4.8 19.3 0.00 0.08 0.08 43 362.2
20260504222232 12 31 11.3 19.3 0.03 0.08 0.08 45 362.2
20260504222019 12 354 3.2 6.4 0.03 0.08 0.08 45 362.1
20260504221226 12 27 0.0 6.4 0.03 0.08 0.08 46 362.0
20260504220724 12 7 3.2 6.4 0.03 0.08 0.08 49 361.7
20260504220216 12 31 0.0 1.6 0.05 0.08 0.08 54 361.5
20260504215714 12 61 0.0 9.7 0.05 0.03 0.08 54 361.4
20260504215214 12 106 1.6 9.7 0.05 0.03 0.08 54 361.5
20260504214710 12 147 0.0 6.4 0.05 0.03 0.08 57 361.7
20260504214209 11 140 1.6 8.0 0.08 0.03 0.08 59 362.0
20260504213954 10 64 3.2 8.0 0.08 0.03 0.08 58 362.2
20260504213203 10 50 0.0 16.1 0.08 0.03 0.08 58 362.5
20260504212703 10 82 0.0 19.3 0.08 0.03 0.08 57 363.0
20260504212256 11 353 1.6 41.8 0.05 0.03 0.05 49 363.6
20260504212239 10 40 9.7 19.3 0.05 0.03 0.05 55 363.5
20260504211204 11 349 11.3 45.1 0.05 0.03 0.05 49 363.7
20260504211009 11 34 19.3 45.1 0.05 0.03 0.05 46 363.5
20260504210451 12 0 14.5 24.1 0.03 0.03 0.03 44 363.2
20260504205951 11 34 3.2 20.9 0.03 0.00 0.03 42 363.0
20260504205204 11 40 9.7 35.4 0.03 0.00 0.03 44 363.0
20260504204703 12 60 3.2 35.4 0.03 0.00 0.03 39 362.8
20260504204202 13 44 17.7 35.4 0.00 0.00 0.00 39 362.5
20260504203704 14 17 24.1 37.0 0.00 0.00 0.00 32 362.1
20260504203202 14 46 19.3 37.0 0.00 0.00 0.00 33 361.6
20260504202703 15 33 22.5 35.4 0.00 0.00 0.00 31 361.3
20260504202202 15 17 20.9 41.8 0.00 0.00 0.00 30 361.0
20260504201948 15 357 25.7 41.8 0.00 0.00 0.00 29 361.3
20260504201205 16 4 22.5 37.0 0.00 0.00 0.00 27 361.5
20260504200702 17 64 14.5 25.7 0.00 0.00 0.00 23 361.5
20260504200203 17 74 17.7 30.6 0.00 0.00 0.00 23 361.4
20260504195704 17 23 17.7 30.6 0.00 0.00 0.00 22 361.5
20260504195203 17 349 22.5 32.2 0.00 0.00 0.00 25 361.3
20260504194703 17 31 17.7 32.2 0.00 0.00 0.00 24 361.3
20260504194203 17 347 19.3 33.8 0.00 0.00 0.00 28 361.4
20260504193952 18 353 17.7 33.8 0.00 0.00 0.00 26 361.3
20260504193451 18 343 20.9 32.2 0.00 0.00 0.00 28 361.3
20260504192949 18 339 24.1 32.2 0.00 0.00 0.00 26 361.2
20260504192453 18 315 17.7 29.0 0.00 0.00 0.00 27 361.2
20260504191704 18 357 17.7 27.4 0.00 0.00 0.00 27 361.0
20260504191449 18 331 20.9 29.0 0.00 0.00 0.00 27 361.2
20260504190703 18 356 16.1 29.0 0.00 0.00 0.00 28 361.2
20260504190203 18 6 14.5 29.0 0.00 0.00 0.00 26 361.2
20260504185952 18 326 11.3 27.4 0.00 0.00 0.00 24 361.2
20260504185204 18 328 17.7 27.4 0.00 0.00 0.00 25 361.2
20260504184942 18 329 16.1 27.4 0.00 0.00 0.00 25 361.3
20260504184441 18 323 12.9 27.4 0.00 0.00 0.00 25 361.3
20260504183943 18 322 16.1 27.4 0.00 0.00 0.00 25 361.5
20260504183431 18 318 11.3 27.4 0.00 0.00 0.00 26 361.6
20260504182643 18 326 16.1 27.4 0.00 0.00 0.00 25 361.6
20260504182139 18 312 17.7 27.4 0.00 0.00 0.00 26 361.7
20260504181639 17 329 14.5 27.4 0.00 0.00 0.00 25 361.8
20260504181216 17 345 16.1 25.7 0.00 0.00 0.00 27 362.1
20260504181206 17 349 17.7 27.4 0.00 0.00 0.00 26 362.0
20260504180132 17 332 8.0 25.7 0.00 0.00 0.00 27 362.0
20260504175630 17 331 9.7 19.3 0.00 0.00 0.00 29 362.2
20260504175135 17 315 8.0 22.5 0.00 0.00 0.00 27 362.3
20260504174633 16 288 9.7 22.5 0.00 0.00 0.00 30 362.4
20260504174134 16 287 8.0 19.3 0.00 0.00 0.00 29 362.4
20260504173633 16 266 11.3 19.3 0.00 0.00 0.00 29 362.5
20260504173133 16 299 4.8 19.3 0.00 0.00 0.00 29 362.5
20260504172633 16 247 6.4 19.3 0.00 0.00 0.00 30 362.7
20260504172421 16 308 4.8 8.0 0.00 0.00 0.00 30 362.8
20260504171632 -17 0.0 0.0 0.00 0.00 0.00 362.7
20260504171129 15 252 9.7 14.5 0.00 0.00 0.00 31 362.7
20260504170622 15 252 9.7 14.5 0.00 0.00 0.00 31 362.7
20260504170122 15 256 8.0 14.5 0.00 0.00 0.00 31 362.8
20260504160112 14 285 11.3 17.7 0.00 0.00 0.00 31 362.7
20260504151035 11 235 0.0 0.0 0.00 0.00 0.00 41 362.9
20260504150529 10 191 0.0 0.0 0.00 0.00 0.00 44 362.9
20260504150302 10 191 0.0 0.0 0.00 0.00 0.00 44 362.9
20260504141019 7 190 0.0 0.0 0.00 0.00 0.00 47 363.1
20260504140517 7 190 0.0 0.0 0.00 0.00 0.00 48 363.1
20260504130818 2 213 1.6 3.2 0.00 0.00 0.00 57 363.1
20260504110505 0 49 0.0 0.0 0.00 0.00 0.00 58 363.2
20260504110301 0 49 0.0 0.0 0.00 0.00 0.00 58 363.2
20260504081927 3 49 0.0 3.2 0.00 0.00 0.00 49 364.0
20260504081427 3 49 0.0 3.2 0.00 0.00 0.00 49 364.0
20260504080927 4 34 1.6 4.8 0.00 0.00 0.00 48 364.0
20260504080422 4 34 0.0 4.8 0.00 0.00 0.00 48 364.2
20260504070409 6 26 0.0 1.6 0.00 0.00 0.00 45 364.7
20260504050649 9 41 4.8 14.5 0.00 0.00 0.00 36 365.0
20260504045907 10 339 6.4 14.5 0.00 0.00 0.00 35 364.9
20260504045407 10 53 8.0 14.5 0.00 0.00 0.00 34 365.0
20260504045150 10 10 6.4 14.5 0.00 0.00 0.00 33 364.7
20260504044408 10 49 6.4 19.3 0.00 0.00 0.00 33 364.7
20260504043908 10 46 11.3 19.3 0.00 0.00 0.00 34 364.7
20260504043403 10 359 9.7 20.9 0.00 0.00 0.00 34 364.7
20260504042905 8 359 9.7 20.9 0.00 0.00 0.00 36 364.7
20260504042405 9 350 1.6 14.5 0.00 0.00 0.00 40 364.6
20260504041904 9 33 4.8 14.5 0.00 0.00 0.00 38 364.7
20260504041401 8 0 0.0 1.6 0.00 0.00 0.00 40 364.4
20260504040856 8 0 0.0 0.0 0.00 0.00 0.00 39 364.5
20260504040345 8 0 0.0 0.0 0.00 0.00 0.00 41 364.6